Other Public Products
Issued by NWS Charleston, SC

Current Version | Previous Version | Graphics & Text | Print | Product List | Glossary On
Versions: 1 2 3 4 5 6 7 8 9 10 11 12 13 14 15 16 17 18 19 20 21 22 23 24 25 26 27 28 29 30 31 32 33 34 35 36 37 38 39 40 41 42 43 44 45 46 47 48 49 50
000
FPUS82 KCHS 161512
OPUCHS

TEST...KCHS/KSAV Gateway Observations...TEST
National Weather Service Charleston SC
1100 AM EDT WED AUG 16 2017

NOTE: "fair" indicates few or no clouds below 12,000 feet with no
significant weather and/or obstructions to visibility.

SCZ050-WAZ558-NCZ071-TXZ119-213-PAZ071-DCZ001-FLZ074-172-MI076-
NYZ176-178-MAZ016-IL014-TNZ027-NJZ106-GAZ044-MD014-161600-

...Gateway Observations for Charleston International...

CITY           SKY/WX    TMP DP  RH WIND       PRES   REMARKS
Chas Airport   MOSUNNY   90  75  61 NW7       30.02S HX 100
Seattle        MOSUNNY   59  51  75 SE7       30.10S
Charlotte      MOSUNNY   86  75  69 N5        30.07S HX  95
Dallas DFW     PTSUNNY   87  74  64 S21G28    29.92R HX  95
Dallas Love    PTSUNNY   85  73  67 SW8G21    29.94R HX  91
Philladelphia  CLOUDY    81  68  64 NW7       30.00R
Wash National  CLOUDY    81  74  79 E6        30.02R
Baltimore      CLOUDY    82  73  74 N3        30.00S
Miami          PTSUNNY   90  76  63 CALM      30.09S HX 101
Detroit        MOSUNNY   77  56  48 SE8       30.09S
Newark         PTSUNNY   82  62  50 N13       29.97R
Laguardia      MOSUNNY   80  64  58 N8        29.96S
J F K          MOSUNNY   82  67  60 N9        29.97S
Boston Logan   MOSUNNY   81  59  47 N13G23    29.91F
Ft. Lauderdale MOSUNNY   89  77  67 SE5       30.09R HX 101
Chicago O`Hare SUNNY     79  65  62 E8        29.99F
Chicago Midway SUNNY     79  67  66 E8        29.99F
Houston Bush   PTSUNNY   88  76  67 SW10      29.98R HX  99
Houston Hobby  MOSUNNY   91  75  59 S15       29.97S HX 101
Nashville      LGT RAIN  78  74  87 SE5       30.07S
Atlanta        MOSUNNY   83  73  72 N7        30.11S

$$

GAZ044-118-TXZ119-213-NCZ071-DCZ001-MDZ014-506-PAZ021-071-NJZ106-
NYZ176-178-MAZ106-OHZ011-021-055-MIZ076-KYZ091-ILZ014-INZ047-
MNZ060-ONZ431-161600-

...Gateway Observations for Savannah International...

CITY           SKY/WX    TMP DP  RH WIND       PRES   REMARKS
Savannah Arpt  SUNNY     89  77  67 NW7       30.05S HX 101
Atlanta        MOSUNNY   83  73  72 N7        30.11S
Charlotte      MOSUNNY   86  75  69 N5        30.07S HX  95
Dallas DFW     PTSUNNY   87  74  64 S21G28    29.92R HX  95
Houston Bush   PTSUNNY   88  76  67 SW10      29.98R HX  99
Wash National  CLOUDY    81  74  79 E6        30.02R
Wash Dulles    PTSUNNY   82  73  74 NW8       30.03R
Baltimore      CLOUDY    82  73  74 N3        30.00S
Philadelphia   CLOUDY    81  68  64 NW7       30.00R
Newark         PTSUNNY   82  62  50 N13       29.97R
Laguardia      MOSUNNY   80  64  58 N8        29.96S
J F K          MOSUNNY   82  67  60 N9        29.97S
Boston         MOSUNNY   81  59  47 N13G23    29.91F
Pittsburg      MOSUNNY   77  61  57 VRB3      30.10R
Akron          SUNNY     78  58  49 E6        30.10S
Cleveland      SUNNY     80  59  48 VRB3      30.10S
Cincinnati     MOSUNNY   84  71  65 S6        30.06R
Columbus       SUNNY     80  71  74 CALM      30.05F
Detroit        MOSUNNY   77  56  48 SE8       30.09S
Chicago O`Hare SUNNY     79  65  62 E8        29.99F
Minneapolis    CLOUDY    67  63  87 SE13      29.90F
Indianapolis   MOSUNNY   83  70  64 VRB7      30.03S
Toronto Canada PTSUNNY   68  61  77 E8        30.10R

$$




USA.gov is the U.S. government's official web portal to all federal, state and local government web resources and services.